Weather History for Flora, IL

Change the Weather History Date:

Wednesday, January 8, 2014

  Actual Average (KEVV) Record (KEVV)
Temperature  
Mean Temperature 22 °F 32 °F  
Max Temperature 30 °F 41 °F 68 °F (1965)
Min Temperature 13 °F 24 °F -15 °F (1942)
Degree Days  
Heating Degree Days 44 33  
Month to date heating degree days 259  
Since 1 July heating degree days 2031  
Cooling Degree Days 0 0  
Month to date cooling degree days 0  
Year to date cooling degree days 0  
Moisture  
Dew Point 18 °F    
Average Humidity 77    
Maximum Humidity 85    
Minimum Humidity 69    
Precipitation  
Precipitation 0.00 in 0.10 in 2.61 in (2008)
Month to date precipitation 0.80  
Year to date precipitation 0.80  
Snow  
Snow 0.00 in 0.10 in 1.50 in (1997)
Month to date snowfall 0.9  
Since 1 July snowfall 4.4  
Snow Depth -    
Sea Level Pressure  
Sea Level Pressure 30.39 in    
Wind  
Wind Speed 7 mph (South)    
Max Wind Speed 12 mph    
Max Gust Speed -    
Visibility 10 miles    
Events      
T = Trace of Precipitation, MM = Missing Value Source: NWS Daily Summary

Daily Weather History Graph

Daily Weather History Graph

Search for Another Location

Airport:

Trip Planner

Search our weather history database for the weather conditions in past years. The results will help you decide how hot, cold, wet, or windy it might be!

Date:

Astronomy

Jan. 08, 2014 Rise Set
Actual Time 7:11 AM CST 4:49 PM CST
Civil Twilight 6:42 AM CST 5:18 PM CST
Nautical Twilight 6:09 AM CST 5:51 PM CST
Astronomical Twilight 5:37 AM CST 6:24 PM CST
Moon 11:39 AM CST (1/8) 12:19 AM CST (1/8)
Length of Visible Light 10h 36m
Length of Day
9h 37m
First Quarter, 56% of the Moon is Illuminated
Jan 8
First Quarter
Jan 15
Full
Jan 23
Last Quarter
Jan 30
New
Feb 6
First Quarter

Hourly Weather History & Observations

Time (CST) Temp. Windchill Dew Point Humidity Pressure Visibility Wind Dir Wind Speed Gust Speed Precip Events Conditions
12:15 AM 13.1 °F 0.9 °F 7.7 °F 79% 30.30 in 10.0 mi South 9.2 mph - N/A   Clear
12:35 AM 14.0 °F 2.0 °F 8.2 °F 78% 30.30 in 10.0 mi South 9.2 mph - N/A   Clear
12:55 AM 14.2 °F 2.2 °F 8.6 °F 78% 30.30 in 10.0 mi South 9.2 mph - N/A   Clear
1:15 AM 14.7 °F 2.9 °F 9.3 °F 79% 30.30 in 10.0 mi South 9.2 mph - N/A   Clear
1:35 AM 15.1 °F 3.3 °F 9.5 °F 79% 30.31 in 10.0 mi South 9.2 mph - N/A   Clear
1:55 AM 16.3 °F 4.9 °F 10.6 °F 78% 30.31 in 10.0 mi South 9.2 mph - N/A   Clear
2:15 AM 18.5 °F 6.1 °F 12.2 °F 76% 30.31 in 10.0 mi South 11.5 mph - N/A   Clear
2:35 AM 19.8 °F 8.3 °F 13.1 °F 75% 30.32 in 10.0 mi SSW 10.4 mph - N/A   Clear
2:55 AM 20.7 °F 9.5 °F 14.0 °F 75% 30.32 in 10.0 mi SSW 10.4 mph - N/A   Scattered Clouds
3:15 AM 21.4 °F 10.4 °F 14.7 °F 75% 30.32 in 10.0 mi SSW 10.4 mph - N/A   Scattered Clouds
3:35 AM 21.7 °F 11.5 °F 15.1 °F 76% 30.32 in 10.0 mi SSW 9.2 mph - N/A   Scattered Clouds
4:15 AM 21.7 °F 11.5 °F 15.4 °F 77% 30.32 in 10.0 mi SSW 9.2 mph - N/A   Clear
4:35 AM 21.9 °F 11.0 °F 15.8 °F 77% 30.32 in 10.0 mi SSW 10.4 mph - N/A   Clear
4:55 AM 21.9 °F 11.0 °F 15.6 °F 77% 30.32 in 10.0 mi SSW 10.4 mph - N/A   Clear
5:15 AM 21.2 °F 11.7 °F 14.9 °F 77% 30.32 in 10.0 mi South 8.1 mph - N/A   Clear
5:35 AM 20.7 °F 11.0 °F 14.9 °F 78% 30.32 in 10.0 mi South 8.1 mph - N/A   Scattered Clouds
5:55 AM 21.2 °F 12.6 °F 15.4 °F 78% 30.33 in 10.0 mi South 6.9 mph - N/A   Mostly Cloudy
6:15 AM 21.0 °F 14.6 °F 15.6 °F 80% 30.34 in 10.0 mi South 4.6 mph - N/A   Mostly Cloudy
6:35 AM 20.7 °F 14.2 °F 15.4 °F 80% 30.35 in 10.0 mi South 4.6 mph - N/A   Scattered Clouds
6:55 AM 20.3 °F 12.5 °F 15.6 °F 82% 30.36 in 10.0 mi South 5.8 mph - N/A   Clear
7:15 AM 21.6 °F 13.0 °F 16.5 °F 81% 30.36 in 10.0 mi SSW 6.9 mph - N/A   Scattered Clouds
7:35 AM 22.1 °F 13.7 °F 16.7 °F 80% 30.36 in 10.0 mi South 6.9 mph - N/A   Clear
7:55 AM 22.3 °F 13.9 °F 16.7 °F 79% 30.37 in 10.0 mi South 6.9 mph - N/A   Clear
8:15 AM 22.1 °F 13.7 °F 16.7 °F 80% 30.37 in 10.0 mi South 6.9 mph - N/A   Clear
8:35 AM 22.8 °F 14.5 °F 16.7 °F 77% 30.38 in 10.0 mi SSW 6.9 mph - N/A   Clear
8:55 AM 23.4 °F 15.2 °F 17.4 °F 78% 30.40 in 10.0 mi SSW 6.9 mph - N/A   Clear
9:15 AM 23.9 °F 14.2 °F 17.6 °F 77% 30.42 in 10.0 mi SSW 9.2 mph - N/A   Clear
9:35 AM 24.3 °F 17.3 °F 17.8 °F 76% 30.42 in 10.0 mi SSW 5.8 mph - N/A   Clear
9:55 AM 24.8 °F 17.9 °F 18.1 °F 76% 30.42 in 10.0 mi SSW 5.8 mph - N/A   Clear
10:15 AM 25.3 °F 18.5 °F 18.7 °F 76% 30.42 in 10.0 mi SSW 5.8 mph - N/A   Clear
10:35 AM 26.2 °F 19.6 °F 18.7 °F 73% 30.42 in 10.0 mi SSW 5.8 mph - N/A   Clear
10:55 AM 26.6 °F 20.0 °F 19.4 °F 74% 30.41 in 10.0 mi SSW 5.8 mph - N/A   Unknown
11:15 AM 26.8 °F 21.4 °F 19.6 °F 74% 30.40 in 10.0 mi South 4.6 mph - N/A   Unknown
11:35 AM 27.0 °F 19.5 °F 19.4 °F 73% 30.38 in 10.0 mi South 6.9 mph - N/A   Clear
11:55 AM 27.3 °F 19.9 °F 19.6 °F 73% 30.38 in 10.0 mi South 6.9 mph - N/A   Clear
12:15 PM 28.0 °F 22.8 °F 19.8 °F 71% 30.37 in 10.0 mi SSW 4.6 mph - N/A   Clear
12:35 PM 28.4 °F 24.6 °F 20.1 °F 71% 30.37 in 10.0 mi SSW 3.5 mph - N/A   Unknown
12:55 PM 28.4 °F 23.3 °F 19.6 °F 70% 30.38 in 10.0 mi SSW 4.6 mph - N/A   Unknown
1:15 PM 28.8 °F 23.7 °F 21.0 °F 73% 30.38 in 10.0 mi South 4.6 mph - N/A   Unknown
1:35 PM 28.9 °F 23.9 °F 19.8 °F 69% 30.38 in 10.0 mi South 4.6 mph - N/A   Unknown
1:55 PM 29.1 °F - 20.7 °F 71% 30.38 in 10.0 mi Calm Calm - N/A   Unknown
2:15 PM 29.3 °F - 21.4 °F 72% 30.39 in 10.0 mi Calm Calm - N/A   Unknown
2:35 PM 29.3 °F 25.6 °F 21.9 °F 74% 30.39 in 10.0 mi SSE 3.5 mph - N/A   Unknown
2:55 PM 29.3 °F - 21.4 °F 72% 30.40 in 10.0 mi Calm Calm - N/A   Clear
3:15 PM 30.0 °F - 21.9 °F 72% 30.40 in 10.0 mi Calm Calm - N/A   Clear
3:35 PM 29.3 °F - 22.8 °F 77% 30.40 in 10.0 mi Calm Calm - N/A   Clear
3:55 PM 29.8 °F - 21.0 °F 70% 30.41 in 10.0 mi Calm Calm - N/A   Clear
4:15 PM 29.3 °F - 21.6 °F 73% 30.41 in 10.0 mi Calm Calm - N/A   Scattered Clouds
4:35 PM 29.1 °F - 22.6 °F 77% 30.42 in 10.0 mi Calm Calm - N/A   Scattered Clouds
4:55 PM 28.6 °F - 23.7 °F 82% 30.42 in 10.0 mi Calm Calm - N/A   Clear
5:15 PM 28.9 °F - 22.1 °F 76% 30.42 in 10.0 mi Calm Calm - N/A   Clear
5:35 PM 28.8 °F 25.0 °F 21.7 °F 75% 30.42 in 10.0 mi East 3.5 mph - N/A   Clear
5:55 PM 28.8 °F 25.0 °F 21.4 °F 74% 30.42 in 10.0 mi East 3.5 mph - N/A   Clear
6:15 PM 28.2 °F 23.1 °F 21.7 °F 77% 30.42 in 10.0 mi NE 4.6 mph - N/A   Clear
6:35 PM 28.4 °F 23.3 °F 21.2 °F 74% 30.42 in 10.0 mi NE 4.6 mph - N/A   Clear
6:55 PM 27.9 °F - 21.7 °F 78% 30.43 in 10.0 mi Calm Calm - N/A   Scattered Clouds
7:15 PM 26.6 °F 22.6 °F 21.6 °F 81% 30.44 in 10.0 mi North 3.5 mph - N/A   Mostly Cloudy
7:35 PM 25.2 °F 19.5 °F 20.8 °F 84% 30.45 in 10.0 mi North 4.6 mph - N/A   Mostly Cloudy
7:55 PM 24.6 °F 17.7 °F 20.5 °F 84% 30.46 in 10.0 mi North 5.8 mph - N/A   Scattered Clouds
8:15 PM 24.3 °F 18.4 °F 20.3 °F 85% 30.45 in 10.0 mi North 4.6 mph - N/A   Clear
8:35 PM 23.5 °F 16.4 °F 19.4 °F 84% 30.46 in 10.0 mi North 5.8 mph - N/A   Clear
8:55 PM 23.7 °F 17.8 °F 19.4 °F 84% 30.47 in 10.0 mi NE 4.6 mph - N/A   Clear
9:15 PM 23.7 °F 16.6 °F 18.9 °F 82% 30.47 in 10.0 mi NNE 5.8 mph - N/A   Clear
9:35 PM 22.6 °F 14.3 °F 17.8 °F 82% 30.47 in 10.0 mi NNE 6.9 mph - N/A   Clear
9:55 PM 21.7 °F 13.2 °F 16.5 °F 80% 30.47 in 10.0 mi NNE 6.9 mph - N/A   Clear
10:15 PM 21.0 °F 12.4 °F 15.8 °F 80% 30.47 in 10.0 mi NNE 6.9 mph - N/A   Clear
10:35 PM 20.3 °F 12.5 °F 14.9 °F 80% 30.47 in 10.0 mi NNE 5.8 mph - N/A   Clear
10:55 PM 20.3 °F 11.5 °F 14.5 °F 78% 30.47 in 10.0 mi NNE 6.9 mph - N/A   Clear
11:15 PM 19.9 °F 11.1 °F 13.8 °F 77% 30.47 in 10.0 mi NNE 6.9 mph - N/A   Clear
11:35 PM 19.9 °F 12.1 °F 14.5 °F 80% 30.47 in 10.0 mi NE 5.8 mph - N/A   Clear
11:55 PM 19.8 °F 13.2 °F 14.0 °F 78% 30.46 in 10.0 mi NNE 4.6 mph - N/A   Clear